Location: Praha
(50.0830°N, 14.4670°E)
Time: 10:36:49
(UTC+02:00)

ISS - Pass Details

Date: 20 May 2019
Orbit: 407 x 410 km, 51.6° (Epoch: 21 May)

Event Time Altitude Azimuth Distance (km) Brightness Sun altitude
Rises 02:50:50 0° 287° (WNW) 2,338 -0.1 -15.8°
Reaches altitude 10° 02:52:58 10° 281° (W) 1,475 -1.2 -15.6°
Maximum altitude 02:56:08 44° 208° (SSW) 575 -3.6 -15.4°
Drops below altitude 10° 02:59:18 10° 135° (SE) 1,470 -1.2 -15.1°
Sets 03:01:26 0° 128° (SE) 2,328 -0.1 -15.0°
